{"data":{"norad_id":48984,"epoch":"2026-09-20T04:50:42.177120Z","epoch_age_seconds":51529,"freshness":"FRESH","line1":"1 48984U 21060T   26263.20187705 -.00000012  00000+0 -64044-4 0  9997","line2":"2 48984  87.9153 209.9125 0001948  78.1944 281.9405 13.16593101252087","mean_motion":13.16593101,"eccentricity":0.0001948,"inclination_deg":87.9153,"raan_deg":209.9125,"arg_perigee_deg":78.1944,"mean_anomaly_deg":281.9405,"bstar":-6.4044e-5,"rev_number":25208,"period_min":109.37319957899,"perigee_km":1196.285316686,"apogee_km":1199.2368865864,"semimajor_km":7575.8981016362,"source":"CELESTRAK","updated_at":"2026-09-20T09:00:44.626366Z"}}